Weather in Podolsk

Russia / Moscow Oblast     55°25′52″N   37°32′41″E
temp.,
°C
wind,
m/s
gust,
m/s
humid.,
%
clouds,
%
prec.,
mm/h
press.,
hPa
HPBL,
m
7 may, fri
fri700:00+6sw41190100 0.0 1008542
03:00+5sw4993100 0.0 1009353
06:00+5sw3891100 0.0 1010308
09:00+9wsw57633 0.0 1011947
12:00+12wsw58405 0.0 10112229
15:00+13wsw583995 0.0 10112517
18:00+13sw47475 0.0 1011981
21:00+9s41163100 0.0 1012325
8 may, sat
sat800:00+8sse51361100 0.0 1011397
03:00+8s51368100 0.3 1011833
06:00+7sse61492100 4.8 1009903
09:00+8se61393100 12.8 1007927
12:00+8sse51295100 4.0 1005921
15:00+8sse3897100 8.7 1004630
18:00+8ne1198100 2.3 100331
21:00+8nnw2597100 3.0 1003191
9 may, sun
sun900:00+8nnw3797100 0.1 1003397
03:00+7n51096100 0.4 1004698
06:00+5nnw71396100 5.4 1006831
09:00+3nnw71497100 13.7 1010784
12:00+6nnw8118499 2.2 10141056
15:00+10nnw611585 2.3 10161824
18:00+11nnw610545 0.0 10181131
21:00+6nw34665 0.0 102159
10 may, mon
mon1000:00+5nnw36730 0.0 1023116
03:00+3nnw38785 0.0 1026147
06:00+4nnw26765 0.0 1028153
09:00+10n345427 0.0 1029503
12:00+13n343977 0.0 10291226
15:00+15nne34341 0.0 10281593
18:00+15nne35461 0.0 1028564
21:00+10ene23600 0.0 103044
11 may, tue
tue1100:00+7ene22690 0.0 103039
03:00+6ne34731 0.0 103158
06:00+7ene26776 0.0 1031160
09:00+12ene4758100 0.0 1031523
12:00+16e5744100 0.0 10301031
15:00+18e4642100 0.0 10291180
18:00+17ene3756100 0.0 1028414
21:00+12ene3768100 0.0 1029126